Location: Sungai Bunut
(2.6333°N, 113.7333°E)
Time: 19:03:14
(UTC+00:00)

Vanguard 3 - Pass Details

Date: 09 December 2023
Orbit: 508 x 3239 km, 33.4° (Epoch: 24 February)

Event Time Altitude Azimuth Distance (km) Brightness Sun altitude
Rises 07:15:40 0° 219° (SW) 6,092 12.4 39.6°
Reaches altitude 10° 07:19:39 10° 212° (SSW) 5,390 12.3 38.8°
Maximum altitude 07:36:03 45° 144° (SE) 3,952 11.0 35.3°
Drops below altitude 10° 07:53:57 10° 78° (ENE) 5,901 11.1 31.4°
Sets 07:58:28 0° 72° (ENE) 6,695 11.3 30.4°
